RYR5697 EIKN-EGGP

Flight info

Callsign RYR5697
Flight time N/A
Altitude 27000
Route CON DCT OLAPO DCT BOFUM
Aircraft B738/M-SDE2E3FGHIRWXY/LB1

Departure

Time 2026-05-09 16:18
Airport Ireland West Airport Knock (EIKN)

Arrival

Time N/A
Airport Liverpool John Lennon Airport (EGGP)
Time Latitude Longitude Altitude Speed Heading
2026-05-09 16:15 53.91347 -8.80921 662 ft 1 kts 168°
2026-05-09 16:15 53.91336 -8.80917 662 ft 2 kts 168°
2026-05-09 16:15 53.91295 -8.80903 662 ft 9 kts 168°
2026-05-09 16:15 53.91172 -8.80869 662 ft 22 kts 188°
2026-05-09 16:16 53.91121 -8.81111 656 ft 27 kts 257°
2026-05-09 16:16 53.91072 -8.81503 647 ft 43 kts 258°
2026-05-09 16:16 53.91005 -8.82099 626 ft 59 kts 257°
2026-05-09 16:16 53.90921 -8.82769 596 ft 61 kts 259°
2026-05-09 16:17 53.90841 -8.83442 572 ft 42 kts 257°
2026-05-09 16:17 53.90809 -8.83676 563 ft 10 kts 37°
2026-05-09 16:17 53.90829 -8.83577 567 ft 6 kts 75°
2026-05-09 16:17 53.90832 -8.83537 569 ft 2 kts 81°
2026-05-09 16:18 53.90880 -8.83132 585 ft 76 kts 78°
2026-05-09 16:18 53.91030 -8.81845 638 ft 146 kts 77°
2026-05-09 16:18 53.91222 -8.80114 1281 ft 158 kts 72°
2026-05-09 16:18 53.91462 -8.78128 1671 ft 194 kts 73°
2026-05-09 16:19 53.91528 -8.75728 2125 ft 225 kts 94°
2026-05-09 16:19 53.91120 -8.73169 2629 ft 235 kts 100°
2026-05-09 16:19 53.90721 -8.70422 3133 ft 249 kts 96°
2026-05-09 16:19 53.90432 -8.67583 3764 ft 251 kts 93°
2026-05-09 16:20 53.90199 -8.64759 4698 ft 252 kts 93°
2026-05-09 16:20 53.89972 -8.61947 5675 ft 251 kts 94°
2026-05-09 16:20 53.89740 -8.59136 6672 ft 249 kts 94°
2026-05-09 16:20 53.89504 -8.56347 7676 ft 245 kts 95°
2026-05-09 16:21 53.89267 -8.53566 8618 ft 243 kts 95°
2026-05-09 16:21 53.89032 -8.50801 9363 ft 247 kts 95°
2026-05-09 16:21 53.88793 -8.47999 10114 ft 251 kts 95°
2026-05-09 16:21 53.88546 -8.45138 10857 ft 254 kts 95°
2026-05-09 16:22 53.88294 -8.42229 11619 ft 256 kts 95°
2026-05-09 16:22 53.88038 -8.39279 12360 ft 258 kts 95°
2026-05-09 16:22 53.87780 -8.36322 13022 ft 263 kts 95°
2026-05-09 16:22 53.87539 -8.33558 13477 ft 273 kts 96°
2026-05-09 16:23 53.87256 -8.30308 13985 ft 285 kts 96°
2026-05-09 16:23 53.86980 -8.27157 14471 ft 295 kts 96°
2026-05-09 16:23 53.86674 -8.23668 14985 ft 306 kts 96°
2026-05-09 16:23 53.86366 -8.20170 15483 ft 317 kts 96°
2026-05-09 16:24 53.86046 -8.16532 15984 ft 327 kts 96°
2026-05-09 16:24 53.85714 -8.12786 16480 ft 336 kts 96°
2026-05-09 16:24 53.85373 -8.08953 16978 ft 346 kts 97°
2026-05-09 16:24 53.85020 -8.04989 17476 ft 355 kts 97°
2026-05-09 16:25 53.84653 -8.00893 17995 ft 363 kts 97°
2026-05-09 16:25 53.84278 -7.96717 18484 ft 371 kts 97°
2026-05-09 16:25 53.83895 -7.92479 18992 ft 379 kts 97°
2026-05-09 16:25 53.83501 -7.88122 19497 ft 386 kts 97°
2026-05-09 16:26 53.83094 -7.83651 20007 ft 393 kts 97°
2026-05-09 16:26 53.82692 -7.79254 20499 ft 400 kts 97°
2026-05-09 16:26 53.82280 -7.74762 20999 ft 406 kts 97°
2026-05-09 16:26 53.81850 -7.70097 21509 ft 411 kts 97°
2026-05-09 16:27 53.81405 -7.65290 22026 ft 416 kts 98°
2026-05-09 16:27 53.80984 -7.60772 22512 ft 421 kts 98°
2026-05-09 16:27 53.80535 -7.55974 23017 ft 425 kts 98°
2026-05-09 16:27 53.80085 -7.51176 23520 ft 429 kts 98°
2026-05-09 16:28 53.79622 -7.46267 24030 ft 433 kts 98°
2026-05-09 16:28 53.79174 -7.41536 24521 ft 436 kts 98°
2026-05-09 16:28 53.78699 -7.36543 25041 ft 439 kts 98°
2026-05-09 16:28 53.78221 -7.31536 25558 ft 441 kts 99°
2026-05-09 16:29 53.77715 -7.26474 26077 ft 443 kts 101°
2026-05-09 16:29 53.77138 -7.21514 26588 ft 445 kts 102°
2026-05-09 16:29 53.76501 -7.16528 27146 ft 443 kts 103°
2026-05-09 16:29 53.75874 -7.11792 27236 ft 452 kts 103°
2026-05-09 16:30 53.75230 -7.06992 27238 ft 462 kts 103°
2026-05-09 16:30 53.74481 -7.01422 27237 ft 473 kts 103°
2026-05-09 16:30 53.73787 -6.96251 27236 ft 481 kts 103°
2026-05-09 16:30 53.73580 -6.94705 27235 ft 482 kts 103°